カタログに戻る

JILIN-1 GAOFEN 07B 01 XING

運用中科学SSO
NORAD 66993·PAYLOAD·🇨🇳 China
この衛星名は、まだ公式ソースで確認されていません。

打ち上げ Dec 10, 2025 から Jiuquan Satellite Launch Center

Loading…

次のパス (今後24時間)

TLE

最新Source: Space-Track

元期: Sep 14, 2026, 10:37 UTC

1 66993U 25292A   26257.44240383  .00002862  00000-0  19553-3 0  9997
2 66993  97.6239 332.2897 0015918  58.4220 301.8559 15.06869773 41884

AllMySatでJILIN-1 GAOFEN 07B 01 XINGをリアルタイム追跡

Download on the App Store